User: anonymous   Login
Location: Unspecified
(0.0000°N, 0.0000°E)
Time: 18:46:43
(UTC+00:00)
Language:

BEESAT 2 - Orbit

View from above orbital plane
View from above orbital plane
View from above satellite
View from above satellite

Ground track
Ground track

The orbit data is extracted from the following two-line orbital elements,

1 39136U 13015G   17145.79914286 +.00001140 +00000-0 +70490-4 0  9996
2 39136 064.8700 309.0989 0031843 285.6771 074.0841 15.15027180225498
Epoch (UTC): 25 May 2017 19:10:45
Eccentricity: 0.0031843
inclination: 64.8700°
perigee height: 499 km
apogee height: 543 km
right ascension of ascending node: 309.0989°
argument of perigee: 285.6771°
revolutions per day: 15.15027180
mean anomaly at epoch: 74.0841°
orbit number at epoch: 22549

The dashed part of the orbit path shows where the satellite is in the earth's shadow,  

DLR